Weather History for Cape Newenham, AK

Change the Weather History Date:

Thursday, November 21, 2013

  Actual Average Record
Temperature  
Mean Temperature 14 °F -  
Max Temperature 15 °F 32 °F 45 °F (2010)
Min Temperature 12 °F 25 °F 4 °F (2012)
Degree Days  
Heating Degree Days 52    
Moisture  
Dew Point 12 °F    
Average Humidity 90    
Maximum Humidity 95    
Minimum Humidity 75    
Precipitation  
Precipitation 0.00 in - - ()
Sea Level Pressure  
Sea Level Pressure 29.52 in    
Wind  
Wind Speed 9 mph (North)    
Max Wind Speed 23 mph    
Max Gust Speed 29 mph    
Visibility 9 miles    
Events Snow    
Averages and records for this station are not official NWS values.
T = Trace of Precipitation, MM = Missing Value Source: NWS Daily Summary

Daily Weather History Graph

Daily Weather History Graph

Search for Another Location

Airport:

Trip Planner

Search our weather history database for the weather conditions in past years. The results will help you decide how hot, cold, wet, or windy it might be!

Date:

Astronomy

Nov. 21, 2013 Rise Set
Actual Time 9:53 AM AKST 5:14 PM AKST
Civil Twilight 9:04 AM AKST 6:03 PM AKST
Nautical Twilight 8:14 AM AKST 6:53 PM AKST
Astronomical Twilight 7:26 AM AKST 7:41 PM AKST
Moon 9:13 PM AKST (11/21) 12:59 PM AKST (11/21)
Length of Visible Light 8h 58m
Length of Day
7h 21m
Waning Gibbous, 84% of the Moon is Illuminated
Nov 21
Waning Gibbous
Nov 25
Last Quarter
Dec 2
New
Dec 9
First Quarter
Dec 17
Full

Hourly Weather History & Observations

Time (AKST) Temp. Windchill Dew Point Humidity Pressure Visibility Wind Dir Wind Speed Gust Speed Precip Events Conditions
12:55 AM 15.6 °F - 9.0 °F 75% 29.76 in 10.0 mi East 2.3 mph - N/A   Clear
1:55 AM 15.4 °F 8.1 °F 10.8 °F 82% 29.75 in 10.0 mi ENE 4.6 mph - N/A   Mostly Cloudy
2:55 AM 14.2 °F 8.4 °F 10.9 °F 87% 29.73 in 10.0 mi ENE 3.5 mph - N/A   Scattered Clouds
3:55 AM 14.9 °F 7.5 °F 12.0 °F 88% 29.72 in 10.0 mi NNE 4.6 mph - N/A Snow Light Snow Showers
4:55 AM 14.9 °F 6.1 °F 12.6 °F 90% 29.70 in 10.0 mi North 5.8 mph - N/A Snow Light Snow Showers
5:55 AM 14.4 °F 5.5 °F 12.9 °F 94% 29.68 in 10.0 mi NE 5.8 mph - N/A Snow Light Snow
6:55 AM 14.7 °F 3.8 °F 12.4 °F 90% 29.65 in 10.0 mi North 8.1 mph - N/A Snow Light Snow
7:55 AM 14.7 °F 2.9 °F 12.9 °F 93% 29.63 in 10.0 mi North 9.2 mph - N/A Snow Light Snow
8:55 AM 14.4 °F 4.3 °F 12.2 °F 91% 29.62 in 10.0 mi NNE 6.9 mph - N/A Snow Light Snow
9:55 AM 14.4 °F 5.5 °F 11.8 °F 90% 29.60 in 10.0 mi North 5.8 mph - N/A Snow Light Snow
10:55 AM 14.9 °F 1.6 °F 13.1 °F 93% 29.57 in 10.0 mi North 11.5 mph - N/A Snow Light Snow Showers
11:55 AM 15.3 °F 0.8 °F 13.5 °F 93% 29.54 in 10.0 mi North 13.8 mph - N/A Snow Light Snow Showers
12:55 PM 15.4 °F 0.4 °F 14.2 °F 95% 29.50 in 10.0 mi North 15.0 mph - N/A Snow Light Snow Showers
1:55 PM 15.6 °F -0.9 °F 14.0 °F 93% 29.47 in 10.0 mi NNE 18.4 mph 21.9 mph N/A   Mostly Cloudy
2:55 PM 15.4 °F -0.6 °F 14.0 °F 94% 29.45 in 10.0 mi North 17.3 mph - N/A   Mostly Cloudy
3:55 PM 15.8 °F 0.3 °F 13.3 °F 90% 29.42 in 10.0 mi North 16.1 mph - N/A Snow Light Snow Showers
4:55 PM 15.6 °F -2.2 °F 14.0 °F 93% 29.39 in 10.0 mi North 21.9 mph 26.5 mph N/A Snow Light Snow Showers
5:55 PM 15.1 °F -2.5 °F 13.1 °F 92% 29.38 in 10.0 mi North 20.7 mph - N/A Snow Light Snow
6:55 PM 14.5 °F -3.6 °F 13.1 °F 94% 29.36 in 9.0 mi NNW 21.9 mph 28.8 mph N/A Snow Light Snow
7:55 PM 14.7 °F -3.8 °F 12.6 °F 91% 29.34 in 10.0 mi NNW 23.0 mph 28.8 mph N/A Snow Light Snow
8:55 PM 13.8 °F -4.9 °F 11.1 °F 89% 29.33 in 8.0 mi NW 23.0 mph - N/A Snow Light Snow
9:55 PM 14.0 °F -3.0 °F 12.0 °F 92% 29.32 in 6.0 mi NNW 18.4 mph 27.6 mph N/A Snow Light Snow
10:55 PM 12.9 °F -3.4 °F 9.9 °F 88% 29.31 in 8.0 mi NW 16.1 mph 25.3 mph N/A Snow Light Snow
11:55 PM 12.9 °F -4.9 °F 10.2 °F 89% 29.31 in 5.0 mi WNW 19.6 mph 24.2 mph N/A Snow Light Snow